TimeCST,TemperatureF,Dew PointF,Humidity,Sea Level PressureIn,VisibilityMPH,Wind Direction,Wind SpeedMPH,Gust SpeedMPH,PrecipitationIn,Events,Conditions,WindDirDegrees,DateUTC
12:53 AM,-13.0,-20.0,71,30.49,10.0,West,9.2,-,N/A,,Clear,270,2013-12-11 06:53:00
1:53 AM,-16.1,-23.1,71,30.51,10.0,West,10.4,-,N/A,,Clear,270,2013-12-11 07:53:00
2:53 AM,-16.1,-23.1,71,30.53,10.0,West,8.1,-,N/A,,Clear,270,2013-12-11 08:53:00
3:53 AM,-15.0,-23.1,67,30.54,10.0,West,6.9,-,N/A,,Clear,260,2013-12-11 09:53:00
4:53 AM,-11.9,-20.9,64,30.54,10.0,WNW,12.7,-,N/A,,Clear,290,2013-12-11 10:53:00
5:53 AM,-16.1,-23.1,71,30.56,10.0,West,8.1,-,N/A,,Clear,260,2013-12-11 11:53:00
6:53 AM,-16.1,-23.1,71,30.56,10.0,WSW,6.9,-,N/A,,Clear,250,2013-12-11 12:53:00
7:53 AM,-16.1,-24.0,67,30.58,10.0,West,4.6,-,N/A,,Clear,270,2013-12-11 13:53:00
8:53 AM,-17.0,-24.0,70,30.60,10.0,SW,6.9,-,N/A,,Clear,230,2013-12-11 14:53:00
9:13 AM,-16.6,-22.0,76,30.49,2.0,SW,6.9,-,N/A,,Haze,220,2013-12-11 15:13:00
9:23 AM,-16.6,-22.0,76,30.49,10.0,South,6.9,-,N/A,,Clear,190,2013-12-11 15:23:00
9:53 AM,-14.1,-20.0,75,30.60,10.0,South,4.6,-,N/A,,Clear,190,2013-12-11 15:53:00
10:53 AM,-9.9,-18.9,65,30.59,10.0,SSW,9.2,-,N/A,,Clear,210,2013-12-11 16:53:00
11:53 AM,-9.0,-18.0,65,30.56,10.0,SSW,10.4,-,N/A,,Clear,200,2013-12-11 17:53:00
12:53 PM,-7.1,-17.0,62,30.55,10.0,SSW,10.4,-,N/A,,Clear,210,2013-12-11 18:53:00
1:53 PM,-5.1,-15.0,62,30.51,10.0,SSW,11.5,-,N/A,,Clear,200,2013-12-11 19:53:00
2:53 PM,-5.1,-15.0,62,30.50,10.0,South,11.5,-,N/A,,Clear,180,2013-12-11 20:53:00
3:53 PM,-4.0,-13.0,65,30.46,10.0,South,11.5,-,N/A,,Clear,170,2013-12-11 21:53:00
4:53 PM,-2.9,-11.9,65,30.41,10.0,South,10.4,-,N/A,,Scattered Clouds,170,2013-12-11 22:53:00
5:53 PM,-2.9,-11.0,68,30.39,10.0,SSE,9.2,-,N/A,,Overcast,160,2013-12-11 23:53:00
6:23 PM,-2.2,-9.4,71,30.28,1.8,SSE,8.1,-,0.00,Snow,Light Snow,160,2013-12-12 00:23:00
6:38 PM,-2.2,-9.4,71,30.26,2.5,SSE,10.4,-,0.00,Snow,Light Snow,160,2013-12-12 00:38:00
6:53 PM,-0.9,-9.0,69,30.35,2.0,SSE,11.5,-,0.00,Snow,Light Snow,160,2013-12-12 00:53:00
7:00 PM,-0.4,-7.6,72,30.25,1.2,SSE,11.5,-,0.00,Snow,Light Snow,160,2013-12-12 01:00:00
7:30 PM,-0.4,-7.6,72,30.24,0.8,SSE,11.5,-,0.01,Snow,Light Snow,150,2013-12-12 01:30:00
7:46 PM,-0.4,-7.6,72,30.24,1.0,SSE,10.4,-,0.01,Snow,Light Snow,160,2013-12-12 01:46:00
7:53 PM,-0.0,-7.1,72,30.34,1.2,SSE,11.5,-,0.02,Snow,Light Snow,160,2013-12-12 01:53:00
8:16 PM,-0.4,-5.8,78,30.23,2.0,SSE,12.7,-,0.00,Snow,Light Snow,160,2013-12-12 02:16:00
8:27 PM,1.4,-5.8,72,30.22,1.2,SSE,10.4,-,0.00,Snow,Light Snow,160,2013-12-12 02:27:00
8:42 PM,1.4,-5.8,72,30.23,2.0,SSE,12.7,-,0.00,Snow,Light Snow,160,2013-12-12 02:42:00
8:53 PM,1.0,-5.1,75,30.31,3.0,SSE,13.8,-,0.00,Snow,Light Snow,160,2013-12-12 02:53:00
9:53 PM,1.0,-5.1,75,30.27,10.0,SSE,13.8,-,0.00,,Overcast,160,2013-12-12 03:53:00
10:53 PM,1.0,-6.0,72,30.27,10.0,South,9.2,-,N/A,,Clear,170,2013-12-12 04:53:00
11:53 PM,-0.0,-6.0,76,30.27,10.0,South,8.1,-,N/A,,Clear,170,2013-12-12 05:53:00